| time (UTC) | temp F | wind direction | speed MPH | gust MPH | rain 1hr in | rain 24hr in | rain mn in | humidity % | barometer mb |
| 20260509180323 | 65 | 143 | 1.0 | 3.0 | 0.00 | 0.00 | 0.00 | 66 | 1011.0 |
| 20260509180014 | 64 | 105 | 0.0 | 3.0 | 0.00 | 0.00 | 0.00 | 65 | 1010.9 |
| 20260509174535 | 65 | 139 | 3.0 | 6.0 | 0.00 | 0.00 | 0.00 | 61 | 1010.7 |
| 20260509173055 | 66 | 162 | 3.0 | 9.0 | 0.00 | 0.00 | 0.00 | 60 | 1010.5 |
| 20260509171627 | 67 | 129 | 3.0 | 10.0 | 0.00 | 0.00 | 0.00 | 58 | 1010.7 |
| 20260509170005 | 67 | 86 | 1.0 | 4.0 | 0.00 | 0.00 | 0.00 | 61 | 1010.8 |
| 20260509164527 | 67 | 186 | 1.0 | 4.0 | 0.00 | 0.00 | 0.00 | 62 | 1010.9 |
| 20260509163048 | 66 | 279 | 0.0 | 3.0 | 0.00 | 0.00 | 0.00 | 66 | 1011.0 |
| 20260509161505 | 64 | 214 | 1.0 | 3.0 | 0.00 | 0.00 | 0.00 | 66 | 1011.4 |
| 20260509160316 | 63 | 142 | 2.0 | 5.0 | 0.00 | 0.00 | 0.00 | 67 | 1011.7 |
| 20260509160054 | 63 | 139 | 2.0 | 5.0 | 0.00 | 0.00 | 0.00 | 67 | 1011.7 |
| 20260509154601 | 63 | 145 | 1.0 | 4.0 | 0.00 | 0.00 | 0.00 | 66 | 1011.9 |
| 20260509153016 | 64 | 96 | 1.0 | 3.0 | 0.00 | 0.00 | 0.00 | 65 | 1012.0 |
| 20260509151524 | 64 | 245 | 1.0 | 5.0 | 0.00 | 0.00 | 0.00 | 65 | 1012.2 |
| 20260509150033 | 64 | 169 | 1.0 | 4.0 | 0.00 | 0.00 | 0.00 | 65 | 1012.1 |
| 20260509144617 | 64 | 178 | 1.0 | 7.0 | 0.00 | 0.00 | 0.00 | 65 | 1012.2 |
| 20260509143051 | 62 | 204 | 2.0 | 6.0 | 0.00 | 0.00 | 0.00 | 66 | 1012.2 |
| 20260509141518 | 61 | 146 | 1.0 | 6.0 | 0.00 | 0.00 | 0.00 | 68 | 1012.1 |
| 20260509140312 | 61 | 207 | 1.0 | 3.0 | 0.00 | 0.00 | 0.00 | 68 | 1012.2 |
| 20260509140015 | 60 | 221 | 0.0 | 7.0 | 0.00 | 0.00 | 0.00 | 69 | 1012.2 |
| 20260509134524 | 59 | 162 | 1.0 | 5.0 | 0.00 | 0.00 | 0.00 | 69 | 1012.3 |
| 20260509133047 | 59 | 195 | 2.0 | 6.0 | 0.00 | 0.00 | 0.00 | 69 | 1012.3 |
| 20260509131603 | 59 | 184 | 1.0 | 7.0 | 0.00 | 0.00 | 0.00 | 68 | 1012.4 |
| 20260509130015 | 58 | 181 | 2.0 | 5.0 | 0.00 | 0.00 | 0.00 | 70 | 1012.4 |
| 20260509124524 | 58 | 207 | 1.0 | 5.0 | 0.00 | 0.00 | 0.00 | 71 | 1012.7 |
| 20260509123042 | 57 | 198 | 1.0 | 4.0 | 0.00 | 0.00 | 0.00 | 70 | 1012.7 |
| 20260509121600 | 57 | 92 | 1.0 | 4.0 | 0.00 | 0.00 | 0.00 | 69 | 1012.7 |
| 20260509120305 | 57 | 188 | 2.0 | 4.0 | 0.00 | 0.00 | 0.00 | 69 | 1012.7 |
| 20260509120014 | 57 | 158 | 0.0 | 4.0 | 0.00 | 0.00 | 0.00 | 69 | 1012.7 |
| 20260509114516 | 56 | 155 | 0.0 | 4.0 | 0.00 | 0.00 | 0.00 | 70 | 1012.9 |
| 20260509113035 | 56 | 72 | 0.0 | 4.0 | 0.00 | 0.00 | 0.00 | 69 | 1012.7 |
| 20260509111555 | 56 | 186 | 1.0 | 4.0 | 0.00 | 0.00 | 0.00 | 69 | 1012.7 |
| 20260509110000 | 56 | 160 | 0.0 | 4.0 | 0.00 | 0.00 | 0.00 | 68 | 1012.8 |
| 20260509104535 | 56 | 113 | 0.0 | 3.0 | 0.00 | 0.00 | 0.00 | 68 | 1012.7 |
| 20260509103030 | 55 | 169 | 2.0 | 6.0 | 0.00 | 0.00 | 0.00 | 69 | 1012.4 |
| 20260509101542 | 55 | 210 | 1.0 | 3.0 | 0.00 | 0.00 | 0.00 | 69 | 1012.5 |
| 20260509100308 | 56 | 202 | 1.0 | 4.0 | 0.00 | 0.00 | 0.00 | 68 | 1012.4 |
| 20260509100055 | 55 | 136 | 0.0 | 5.0 | 0.00 | 0.00 | 0.00 | 68 | 1012.4 |
| 20260509094555 | 55 | 142 | 0.0 | 2.0 | 0.00 | 0.00 | 0.00 | 69 | 1012.4 |
| 20260509093014 | 55 | 217 | 0.0 | 0.0 | 0.00 | 0.00 | 0.00 | 69 | 1012.4 |
| 20260509091522 | 55 | 217 | 0.0 | 0.0 | 0.00 | 0.00 | 0.00 | 69 | 1012.3 |
| 20260509090019 | 55 | 214 | 0.0 | 0.0 | 0.00 | 0.00 | 0.00 | 69 | 1012.4 |
| 20260509084532 | 55 | 214 | 0.0 | 0.0 | 0.00 | 0.00 | 0.00 | 68 | 1012.4 |
| 20260509083046 | 55 | 214 | 0.0 | 1.0 | 0.00 | 0.00 | 0.00 | 68 | 1012.4 |
| 20260509081504 | 55 | 225 | 0.0 | 1.0 | 0.00 | 0.00 | 0.00 | 68 | 1012.6 |
| 20260509080316 | 55 | 138 | 0.0 | 1.0 | 0.00 | 0.00 | 0.00 | 69 | 1012.6 |
| 20260509080056 | 55 | 153 | 0.0 | 0.0 | 0.00 | 0.00 | 0.00 | 69 | 1012.6 |
| 20260509074602 | 55 | 160 | 0.0 | 0.0 | 0.00 | 0.00 | 0.00 | 68 | 1012.4 |
| 20260509073008 | 56 | 222 | 0.0 | 2.0 | 0.00 | 0.00 | 0.00 | 68 | 1012.6 |
| 20260509071529 | 55 | 110 | 0.0 | 2.0 | 0.00 | 0.00 | 0.00 | 68 | 1012.7 |
| 20260509070040 | 55 | 96 | 0.0 | 2.0 | 0.00 | 0.00 | 0.00 | 68 | 1012.6 |
| 20260509064548 | 55 | 101 | 0.0 | 1.0 | 0.00 | 0.00 | 0.00 | 68 | 1012.6 |
| 20260509063007 | 55 | 101 | 0.0 | 1.0 | 0.00 | 0.00 | 0.00 | 68 | 1012.7 |
| 20260509061515 | 55 | 97 | 0.0 | 1.0 | 0.00 | 0.00 | 0.00 | 68 | 1012.7 |
| 20260509060313 | 55 | 97 | 0.0 | 2.0 | 0.00 | 0.00 | 0.00 | 68 | 1013.0 |
| 20260509060024 | 55 | 94 | 1.0 | 2.0 | 0.00 | 0.00 | 0.00 | 68 | 1013.0 |
| 20260509054535 | 55 | 160 | 0.0 | 0.0 | 0.00 | 0.00 | 0.00 | 68 | 1013.3 |
| 20260509053032 | 54 | 160 | 0.0 | 1.0 | 0.00 | 0.00 | 0.00 | 69 | 1013.3 |
| 20260509051557 | 54 | 169 | 0.0 | 0.0 | 0.00 | 0.00 | 0.00 | 71 | 1013.2 |
| 20260509050003 | 53 | 169 | 0.0 | 0.0 | 0.00 | 0.00 | 0.00 | 70 | 1013.3 |
| 20260509044514 | 54 | 169 | 0.0 | 0.0 | 0.00 | 0.00 | 0.00 | 70 | 1013.1 |
| 20260509043027 | 54 | 169 | 0.0 | 0.0 | 0.00 | 0.00 | 0.00 | 69 | 1013.1 |
| 20260509041536 | 54 | 169 | 0.0 | 0.0 | 0.00 | 0.00 | 0.00 | 68 | 1013.1 |
| 20260509040335 | 55 | 169 | 0.0 | 0.0 | 0.00 | 0.00 | 0.00 | 66 | 1013.0 |
| 20260509040019 | 54 | 169 | 0.0 | 0.0 | 0.00 | 0.00 | 0.00 | 66 | 1013.1 |
| 20260509034540 | 55 | 169 | 0.0 | 0.0 | 0.00 | 0.00 | 0.00 | 65 | 1013.2 |
| 20260509033054 | 55 | 169 | 0.0 | 0.0 | 0.00 | 0.00 | 0.00 | 65 | 1013.3 |
| 20260509031604 | 56 | 170 | 0.0 | 0.0 | 0.00 | 0.00 | 0.00 | 64 | 1013.3 |
| 20260509030008 | 57 | 170 | 0.0 | 0.0 | 0.00 | 0.00 | 0.00 | 62 | 1013.3 |
| 20260509024519 | 57 | 170 | 0.0 | 1.0 | 0.00 | 0.00 | 0.00 | 61 | 1013.4 |
| 20260509023031 | 57 | 145 | 0.0 | 3.0 | 0.00 | 0.00 | 0.00 | 60 | 1013.4 |
| 20260509021536 | 57 | 122 | 1.0 | 4.0 | 0.00 | 0.00 | 0.00 | 59 | 1013.3 |
| 20260509020307 | 57 | 174 | 1.0 | 4.0 | 0.00 | 0.00 | 0.00 | 59 | 1013.3 |
| 20260509020049 | 57 | 167 | 1.0 | 4.0 | 0.00 | 0.00 | 0.00 | 59 | 1013.3 |
| 20260509014601 | 57 | 149 | 1.0 | 6.0 | 0.00 | 0.00 | 0.00 | 58 | 1013.0 |
| 20260509013034 | 58 | 179 | 0.0 | 1.0 | 0.00 | 0.00 | 0.00 | 56 | 1012.9 |
| 20260509011536 | 58 | 17 | 0.0 | 1.0 | 0.00 | 0.00 | 0.00 | 57 | 1012.7 |
| 20260509010054 | 58 | 1 | 0.0 | 1.0 | 0.00 | 0.00 | 0.00 | 56 | 1012.4 |
| 20260509004505 | 58 | 26 | 0.0 | 1.0 | 0.00 | 0.00 | 0.00 | 55 | 1012.1 |
| 20260509003023 | 59 | 41 | 0.0 | 1.0 | 0.00 | 0.00 | 0.00 | 54 | 1012.0 |
| 20260509001545 | 59 | 337 | 0.0 | 5.0 | 0.00 | 0.00 | 0.00 | 54 | 1011.8 |
| 20260509000259 | 60 | 23 | 1.0 | 7.0 | 0.00 | 0.00 | 0.00 | 52 | 1011.9 |
| 20260509000044 | 59 | 21 | 2.0 | 7.0 | 0.00 | 0.00 | 0.00 | 52 | 1011.9 |
| 20260508234505 | 60 | 4 | 0.0 | 3.0 | 0.00 | 0.00 | 0.00 | 52 | 1011.9 |
| 20260508233019 | 60 | 22 | 0.0 | 3.0 | 0.00 | 0.00 | 0.00 | 50 | 1011.8 |
| 20260508231547 | 61 | 89 | 0.0 | 4.0 | 0.00 | 0.00 | 0.00 | 48 | 1011.5 |
| 20260508230056 | 61 | 2 | 1.0 | 4.0 | 0.00 | 0.00 | 0.00 | 48 | 1011.5 |
| 20260508224605 | 61 | 352 | 1.0 | 5.0 | 0.00 | 0.00 | 0.00 | 47 | 1011.4 |
| 20260508223023 | 62 | 36 | 1.0 | 7.0 | 0.00 | 0.00 | 0.00 | 44 | 1011.4 |
| 20260508221520 | 63 | 50 | 1.0 | 6.0 | 0.00 | 0.00 | 0.00 | 43 | 1011.4 |
| 20260508220305 | 65 | 296 | 2.0 | 11.0 | 0.00 | 0.00 | 0.00 | 41 | 1011.4 |
| 20260508220014 | 64 | 354 | 1.0 | 11.0 | 0.00 | 0.00 | 0.00 | 42 | 1011.4 |
| 20260508214532 | 64 | 281 | 0.0 | 6.0 | 0.00 | 0.00 | 0.00 | 42 | 1011.3 |
| 20260508213052 | 65 | 291 | 4.0 | 10.0 | 0.00 | 0.00 | 0.00 | 39 | 1011.4 |
| 20260508211549 | 64 | 221 | 3.0 | 6.0 | 0.00 | 0.00 | 0.00 | 40 | 1011.4 |
| 20260508210056 | 63 | 341 | 2.0 | 12.0 | 0.00 | 0.00 | 0.00 | 41 | 1011.6 |
| 20260508204519 | 63 | 287 | 1.0 | 7.0 | 0.00 | 0.00 | 0.00 | 40 | 1011.5 |
| 20260508203029 | 62 | 314 | 2.0 | 8.0 | 0.00 | 0.00 | 0.00 | 40 | 1011.7 |
| 20260508201541 | 63 | 276 | 1.0 | 9.0 | 0.00 | 0.00 | 0.00 | 39 | 1011.5 |
| 20260508200302 | 64 | 231 | 2.0 | 11.0 | 0.00 | 0.00 | 0.00 | 38 | 1011.4 |
| 20260508200048 | 63 | 201 | 4.0 | 13.0 | 0.00 | 0.00 | 0.00 | 37 | 1011.4 |
| 20260508194558 | 65 | 257 | 3.0 | 10.0 | 0.00 | 0.00 | 0.00 | 36 | 1011.3 |
| 20260508193135 | 66 | 210 | 2.0 | 11.0 | 0.00 | 0.00 | 0.00 | 37 | 1011.2 |
| 20260508191531 | 65 | 223 | 2.0 | 9.0 | 0.00 | 0.00 | 0.00 | 38 | 1011.4 |
| 20260508190045 | 64 | 311 | 3.0 | 12.0 | 0.00 | 0.00 | 0.00 | 37 | 1011.7 |
| 20260508184622 | 63 | 39 | 2.0 | 11.0 | 0.00 | 0.00 | 0.00 | 38 | 1011.7 |
| 20260508183007 | 64 | 237 | 4.0 | 11.0 | 0.00 | 0.00 | 0.00 | 36 | 1011.9 |
| 20260508181527 | 64 | 143 | 4.0 | 11.0 | 0.00 | 0.00 | 0.00 | 37 | 1011.8 |